| time (UTC) | temp F | wind direction | speed MPH | gust MPH | rain 1hr in | rain 24hr in | rain mn in | humidity % | barometer mb |
| 20260503205006 | 49 | 0.0 | 0.0 | 0.00 | 0.00 | 0.00 | 36 | 1020.0 | |
| 20260503204005 | 49 | 0.0 | 0.0 | 0.00 | 0.00 | 0.00 | 36 | 1020.0 | |
| 20260503203006 | 49 | 0.0 | 0.0 | 0.00 | 0.00 | 0.00 | 38 | 1020.0 | |
| 20260503202006 | 48 | 0.0 | 0.0 | 0.00 | 0.00 | 0.00 | 39 | 1020.0 | |
| 20260503201216 | 46 | 0.0 | 0.0 | 0.00 | 0.00 | 0.00 | 39 | 1019.8 | |
| 20260503200006 | 47 | 0.0 | 0.0 | 0.00 | 0.00 | 0.00 | 40 | 1019.9 | |
| 20260503195007 | 48 | 0.0 | 0.0 | 0.00 | 0.00 | 0.00 | 41 | 1019.9 | |
| 20260503194215 | 47 | 0.0 | 0.0 | 0.00 | 0.00 | 0.00 | 42 | 1019.9 | |
| 20260503193005 | 46 | 0.0 | 0.0 | 0.00 | 0.00 | 0.00 | 42 | 1020.0 | |
| 20260503192006 | 46 | 0.0 | 0.0 | 0.00 | 0.00 | 0.00 | 42 | 1020.0 | |
| 20260503191006 | 47 | 0.0 | 0.0 | 0.00 | 0.00 | 0.00 | 42 | 1020.0 | |
| 20260503190005 | 47 | 0.0 | 0.0 | 0.00 | 0.00 | 0.00 | 43 | 1020.0 | |
| 20260503185005 | 47 | 0.0 | 0.0 | 0.00 | 0.00 | 0.00 | 44 | 1020.0 | |
| 20260503184005 | 46 | 0.0 | 0.0 | 0.00 | 0.00 | 0.00 | 45 | 1019.9 | |
| 20260503183007 | 47 | 0.0 | 0.0 | 0.00 | 0.00 | 0.00 | 46 | 1019.9 | |
| 20260503182217 | 46 | 0.0 | 0.0 | 0.00 | 0.00 | 0.00 | 47 | 1019.8 | |
| 20260503181005 | 46 | 0.0 | 0.0 | 0.00 | 0.00 | 0.00 | 48 | 1019.8 | |
| 20260503180006 | 45 | 0.0 | 0.0 | 0.00 | 0.00 | 0.00 | 49 | 1019.8 | |
| 20260503175006 | 45 | 0.0 | 0.0 | 0.00 | 0.00 | 0.00 | 50 | 1019.8 | |
| 20260503174216 | 43 | 0.0 | 0.0 | 0.00 | 0.00 | 0.00 | 51 | 1019.9 | |
| 20260503173006 | 42 | 0.0 | 0.0 | 0.00 | 0.00 | 0.00 | 52 | 1019.9 | |
| 20260503172217 | 41 | 0.0 | 0.0 | 0.00 | 0.00 | 0.00 | 53 | 1019.9 | |
| 20260503171007 | 38 | 0.0 | 0.0 | 0.00 | 0.00 | 0.00 | 54 | 1020.0 | |
| 20260503151006 | 29 | 0.0 | 0.0 | 0.00 | 0.00 | 0.00 | 57 | 1019.8 | |
| 20260503131005 | 27 | 0.0 | 0.0 | 0.00 | 0.00 | 0.00 | 55 | 1019.1 | |
| 20260503081006 | 30 | 0.0 | 0.0 | 0.00 | 0.00 | 0.00 | 51 | 1016.9 | |
| 20260503072005 | 34 | 0.0 | 0.0 | 0.00 | 0.00 | 0.00 | 49 | 1016.5 | |
| 20260503071007 | 34 | 0.0 | 0.0 | 0.00 | 0.00 | 0.00 | 49 | 1016.4 | |
| 20260503060216 | 38 | 0.0 | 0.0 | 0.00 | 0.00 | 0.00 | 46 | 1015.9 | |
| 20260503054006 | 40 | 0.0 | 0.0 | 0.00 | 0.00 | 0.00 | 44 | 1015.6 | |
| 20260503053006 | 40 | 0.0 | 0.0 | 0.00 | 0.00 | 0.00 | 44 | 1015.7 | |
| 20260503052216 | 41 | 0.0 | 0.0 | 0.00 | 0.00 | 0.00 | 44 | 1015.7 | |
| 20260503051005 | 41 | 0.0 | 0.0 | 0.00 | 0.00 | 0.00 | 43 | 1015.7 | |
| 20260503050006 | 41 | 0.0 | 0.0 | 0.00 | 0.00 | 0.00 | 43 | 1015.6 | |
| 20260503045006 | 42 | 0.0 | 0.0 | 0.00 | 0.00 | 0.00 | 43 | 1015.6 | |
| 20260503044005 | 42 | 0.0 | 0.0 | 0.00 | 0.00 | 0.00 | 42 | 1015.4 | |
| 20260503043216 | 42 | 0.0 | 0.0 | 0.00 | 0.00 | 0.00 | 42 | 1015.4 | |
| 20260503042005 | 42 | 0.0 | 0.0 | 0.00 | 0.00 | 0.00 | 41 | 1015.4 | |
| 20260503041006 | 43 | 0.0 | 0.0 | 0.00 | 0.00 | 0.00 | 40 | 1015.2 | |
| 20260503040006 | 43 | 0.0 | 0.0 | 0.00 | 0.00 | 0.00 | 39 | 1015.1 | |
| 20260503035006 | 44 | 0.0 | 0.0 | 0.00 | 0.00 | 0.00 | 38 | 1014.9 | |
| 20260503034006 | 44 | 0.0 | 0.0 | 0.00 | 0.00 | 0.00 | 38 | 1014.8 | |
| 20260503033006 | 44 | 0.0 | 0.0 | 0.00 | 0.00 | 0.00 | 37 | 1014.6 | |
| 20260503032006 | 45 | 0.0 | 0.0 | 0.00 | 0.00 | 0.00 | 36 | 1014.5 | |
| 20260503031006 | 45 | 0.0 | 0.0 | 0.00 | 0.00 | 0.00 | 36 | 1014.3 | |
| 20260503030006 | 46 | 0.0 | 0.0 | 0.00 | 0.00 | 0.00 | 36 | 1014.1 | |
| 20260503025006 | 46 | 0.0 | 0.0 | 0.00 | 0.00 | 0.00 | 36 | 1014.1 | |
| 20260503024006 | 47 | 0.0 | 0.0 | 0.00 | 0.00 | 0.00 | 35 | 1013.9 | |
| 20260503023006 | 47 | 0.0 | 0.0 | 0.00 | 0.00 | 0.00 | 34 | 1013.7 | |
| 20260503022006 | 46 | 0.0 | 0.0 | 0.00 | 0.00 | 0.00 | 34 | 1013.6 | |
| 20260503021005 | 47 | 0.0 | 0.0 | 0.00 | 0.00 | 0.00 | 33 | 1013.4 | |
| 20260503020005 | 49 | 0.0 | 0.0 | 0.00 | 0.00 | 0.00 | 33 | 1013.2 | |
| 20260503015005 | 48 | 0.0 | 0.0 | 0.00 | 0.00 | 0.00 | 33 | 1013.0 | |
| 20260503014006 | 48 | 0.0 | 0.0 | 0.00 | 0.00 | 0.00 | 34 | 1012.7 | |
| 20260503013216 | 48 | 0.0 | 0.0 | 0.00 | 0.00 | 0.00 | 34 | 1012.6 | |
| 20260503012011 | 48 | 0.0 | 0.0 | 0.00 | 0.00 | 0.00 | 34 | 1012.5 | |
| 20260503011006 | 48 | 0.0 | 0.0 | 0.00 | 0.00 | 0.00 | 33 | 1012.4 | |
| 20260503010006 | 49 | 0.0 | 0.0 | 0.00 | 0.00 | 0.00 | 32 | 1012.0 | |
| 20260503005216 | 50 | 0.0 | 0.0 | 0.00 | 0.00 | 0.00 | 32 | 1011.7 | |
| 20260503004006 | 49 | 0.0 | 0.0 | 0.00 | 0.00 | 0.00 | 32 | 1011.6 | |
| 20260503003005 | 50 | 0.0 | 0.0 | 0.00 | 0.00 | 0.00 | 30 | 1011.4 | |
| 20260503002005 | 51 | 0.0 | 0.0 | 0.00 | 0.00 | 0.00 | 29 | 1011.1 | |
| 20260503001216 | 52 | 0.0 | 0.0 | 0.00 | 0.00 | 0.00 | 30 | 1010.9 | |
| 20260503000006 | 51 | 0.0 | 0.0 | 0.00 | 0.00 | 0.00 | 29 | 1010.7 | |
| 20260502235006 | 52 | 0.0 | 0.0 | 0.00 | 0.00 | 0.00 | 28 | 1010.5 | |
| 20260502234006 | 52 | 0.0 | 0.0 | 0.00 | 0.00 | 0.00 | 27 | 1010.3 | |
| 20260502233006 | 52 | 0.0 | 0.0 | 0.00 | 0.00 | 0.00 | 26 | 1010.2 | |
| 20260502232216 | 53 | 0.0 | 0.0 | 0.00 | 0.00 | 0.00 | 27 | 1010.2 | |
| 20260502231006 | 53 | 0.0 | 0.0 | 0.00 | 0.00 | 0.00 | 27 | 1010.1 | |
| 20260502230007 | 53 | 0.0 | 0.0 | 0.00 | 0.00 | 0.00 | 27 | 1009.9 | |
| 20260502225005 | 53 | 0.0 | 0.0 | 0.00 | 0.00 | 0.00 | 28 | 1009.9 | |
| 20260502224006 | 52 | 0.0 | 0.0 | 0.00 | 0.00 | 0.00 | 27 | 1009.9 | |
| 20260502223006 | 52 | 0.0 | 0.0 | 0.00 | 0.00 | 0.00 | 27 | 1009.8 | |
| 20260502222215 | 52 | 0.0 | 0.0 | 0.00 | 0.00 | 0.00 | 27 | 1009.8 | |
| 20260502221005 | 53 | 0.0 | 0.0 | 0.00 | 0.00 | 0.00 | 28 | 1009.6 | |
| 20260502220006 | 52 | 0.0 | 0.0 | 0.00 | 0.00 | 0.00 | 28 | 1009.5 | |
| 20260502215215 | 52 | 0.0 | 0.0 | 0.00 | 0.00 | 0.00 | 28 | 1009.5 | |
| 20260502214005 | 52 | 0.0 | 0.0 | 0.00 | 0.00 | 0.00 | 28 | 1009.3 | |
| 20260502213006 | 52 | 0.0 | 0.0 | 0.00 | 0.00 | 0.00 | 29 | 1009.3 | |
| 20260502212006 | 52 | 0.0 | 0.0 | 0.00 | 0.00 | 0.00 | 30 | 1009.2 | |
| 20260502211006 | 53 | 0.0 | 0.0 | 0.00 | 0.00 | 0.00 | 30 | 1009.2 | |
| 20260502210006 | 51 | 0.0 | 0.0 | 0.00 | 0.00 | 0.00 | 31 | 1009.2 |